Regional Weather Roundup
Issued by NWS Jackson, KY

Home | Current Version | Previous Version | Graphics & Text | Print | Product List | Glossary On
Versions: 1 2 3 4 5 6 7 8 9 10 11 12 13 14 15 16 17 18 19 20 21 22 23 24 25 26 27 28 29 30 31 32 33 34 35 36 37 38 39 40 41 42 43 44 45 46 47 48 49 50
000
ASUS43 KJKL 012010
RWRJKL

EAST KENTUCKY HOURLY WEATHER ROUNDUP
NATIONAL WEATHER SERVICE JACKSON KY
400 PM EDT TUE SEP 01 2015

NOTE: "FAIR" INDICATES FEW OR NO CLOUDS BELOW 12,000 FEET WITH
NO SIGNIFICANT WEATHER AND/OR OBSTRUCTIONS TO VISIBILITY.

* THESE REPORTS ARE NOT UNDER NWS QUALITY CONTROL AND MAY NOT
  REPORT WEATHER SUCH AS PRECIPITATION AND FOG.

KYZ079-080-083-085-087-088-110-112-115-119-120-012100
...EASTERN KENTUCKY...

CITY           SKY/WX    TMP DP  RH WIND       PRES   REMARKS
JACKSON        MOSUNNY   86  64  47 CALM      30.14F
LONDON         PTSUNNY   89  58  34 NE6       30.13F
SOMERSET*      MOSUNNY   84  61  45 SE3       30.13F
MONTICELLO*    MOSUNNY   89  68  49 CALM      30.14F HX  92
WILLIAMSBURG*  SUNNY     84  64  51 N3        30.12F
MIDDLESBORO*   MOSUNNY   88  65  45 SW3       30.12F HX  90
HARLAN APT*      N/A     86  63  45 MISG      30.14F
HAZARD APT*    MOCLDY    84  64  51 CALM      30.14
BLACK MTN*       N/A     73  64  73 CALM        N/A
PIKEVILLE APT* SUNNY     82  66  57 CALM      30.14F
BIG SANDY*     PTCLDY    86  65  49 CALM      30.13F
MOREHEAD APT*  CLEAR     86  63  45 CALM      30.14F
$$

KYZ035-036-041-042-044-050-067-078-099-012100
...CENTRAL KENTUCKY...

CITY           SKY/WX    TMP DP  RH WIND       PRES   REMARKS
MT STERLING*   MOSUNNY   88  64  45 CALM      30.14F
FLEMING/MASON* MOSUNNY   88  66  48 NW3       30.12F HX  90
DANVILLE*      SUNNY     86  63  45 CALM      30.13F
RICHMOND*      SUNNY     86  61  42 NE3       30.12F
LEXINGTON      MOSUNNY   89  61  38 VRB5      30.12F
FRANKFORT      PTSUNNY   88  63  43 N5        30.11F
$$

KYZ091>093-OHZ055-061-077-WVZ005-015-034-035-042-012100
...SOUTHERN OHIO/WEST VIRGINIA...

CITY           SKY/WX    TMP DP  RH WIND       PRES   REMARKS
COVINGTON      MOSUNNY   88  64  44 VRB6      30.11F
COLUMBUS       PTSUNNY   86  66  51 W5        30.08F
DAYTON         PTSUNNY   85  68  56 SW10      30.11F
WILMINGTON     MOSUNNY   86  64  47 SW6       30.11F
HUNTINGTON     SUNNY     90  63  40 N5        30.10F HX  91
CHARLESTON     MOSUNNY   88  62  41 N6        30.10F
PINEVILLE*     CLOUDY    79  73  80 MISG      30.20F
BECKLEY        CLOUDY    80  60  50 CALM      30.19F
BLUEFIELD      CLOUDY    83  60  45 CALM      30.22F
$$

VAZ002-007-008-TNZ017-027-036-066-071-012100
...SOUTHWEST VIRGINIA/EAST TENNESSEE...

CITY           SKY/WX    TMP DP  RH WIND       PRES   REMARKS
JONESVILLE*    PTCLDY    86  64  48 CALM      30.15F
ABINGDON*      PTSUNNY   88  58  37 CALM      30.16F
BRISTOL        PTSUNNY   87  62  43 VRB3      30.13F
KNOXVILLE      PTSUNNY   89  63  41 NW5       30.10F HX  90
OAK RIDGE      PTSUNNY   88  64  44 MISG      30.12F
CROSSVILLE     MOSUNNY   82  65  56 SE6       30.16F
NASHVILLE      CLOUDY    89  64  43 SE5       30.10F HX  90
$$

...KEY TO REMARKS...
VSB - VISIBILITY IN MILES
WCI - WIND CHILL INDEX
HX  - HEAT INDEX

$$


USA.gov is the U.S. government's official web portal to all federal, state and local government web resources and services.